Regional Weather Roundup
Issued by NWS Northern Indiana

Home | Current Version | Previous Version | Graphics & Text | Print | Product List | Glossary On
Versions: 1 2 3 4 5 6 7 8 9 10 11 12 13 14 15 16 17 18 19 20 21 22 23 24 25 26 27 28 29 30 31 32 33 34 35 36 37 38 39 40 41 42 43 44 45 46 47 48 49 50
000
ASUS43 KIWX 271010
RWRIWX

KIWX WEATHER ROUNDUP
NATIONAL WEATHER SERVICE NORTHERN INDIANA
500 AM EST SAT DEC 27 2014

NOTE: "FAIR" INDICATES FEW OR NO CLOUDS BELOW 12,000 FEET WITH NO
SIGNIFICANT WEATHER AND/OR OBSTRUCTIONS TO VISIBILITY.

* THESE STATIONS ARE NOT UNDER NWS QUALITY CONTROL. THEY ALSO MAY NOT
  REPORT WEATHER SUCH AS PRECIPITATION OR FOG.

INZ001>027-271100-
NORTHERN INDIANA

CITY           SKY/WX    TMP DP  RH WIND       PRES   REMARKS
VALPARAISO     CLOUDY    45  43  93 S14G20    30.03F
MICHIGAN CITY* DRIZZLE   45  43  93 S9        30.02F
LAPORTE*       LGT RAIN  46  46 100 S9        30.03F
KNOX*          CLOUDY    45  40  84 S13       30.03F
SOUTH BEND     LGT RAIN  46  44  93 S12       30.04F FOG
GOSHEN         LGT RAIN  45  43  93 S10       30.05F FOG
MONTICELLO*    RAIN      44  41  89 S12       30.05F
LOGANSPORT*    LGT RAIN  43  37  81 S12       30.08F
ROCHESTER*     LGT RAIN  46  43  87 S9        30.06F
WARSAW*        LGT RAIN  45  41  87 S7        30.06F
ANGOLA*        CLOUDY    45  39  81 SW8       30.07F
FORT WAYNE     CLOUDY    45  40  82 S10       30.10F
HUNTINGTON*    CLOUDY    45  40  83 S7        30.08F
PERU/GRISSOM   LGT RAIN  46  45  93 S12       30.08F
MARION*        CLOUDY    44  38  79 S10       30.10F

$$
INZ028>050-271100-
CENTRAL INDIANA

CITY           SKY/WX    TMP DP  RH WIND       PRES   REMARKS
LAFAYETTE      LGT RAIN  44  41  89 S7        30.07F
KOKOMO*        CLOUDY    46  37  71 S12       30.09S
MUNCIE*        CLOUDY    47  35  63 SW13      30.11F
INDIANAPOLIS   LGT RAIN  44  36  73 S12       30.11F

$$
MIZ043>046-050>051-056>058-064>065-071>073-077>080-271100-
SOUTHWEST LOWER MICHIGAN

CITY           SKY/WX    TMP DP  RH WIND       PRES   REMARKS
BATTLE CREEK   CLOUDY    45  40  82 S12       30.05F
BENTON HARBOR  LGT RAIN  45  43  93 S8        30.01F
COLDWATER*     CLOUDY    45  40  81 SW10G16   30.07R
HILLSDALE*     CLOUDY    43  41  93 S6        30.07S
HOLLAND        CLOUDY    47  42  83 S10       30.01F
GRAND RAPIDS   CLOUDY    43  40  89 S9        30.01F
KALAMAZOO      CLOUDY    44  40  85 S8        30.04F
STURGIS*       DRIZZLE   45  43  93 S10G18    30.05F
THREE RIVERS*  CLOUDY    45  41  85 S9        30.05F

$$
OHZ001>008-015>018-024>025-271100-
NORTHWEST OHIO

CITY           SKY/WX    TMP DP  RH WIND       PRES   REMARKS
WAUSEON*       CLOUDY    45  39  81 SW10      30.10S
DEFIANCE       CLOUDY    45  39  79 S6        30.12F
FINDLAY        CLOUDY    45  38  76 S6        30.12F
TOLEDO EXPRESS CLOUDY    45  38  76 SW8       30.10F
TOLEDO METCALF CLOUDY    45  37  73 SW7       30.12F
LIMA           CLOUDY    46  36  68 S7        30.13S

$$
AND FOR LAKE MICHIGAN COASTAL AND OPEN LAKE BUOY OBSERVATIONS

STATION/POSITION TEMP    WIND        PRES    VSBY  WAVE
                 AIR SEA DIR/SP/G                  HT/PER
                 (F)     (DEG/KT/KT) (MB)    (MI)  (FT/S)
CALUMET HARBOR    46     180/  9/ 11 1014.3F
MICHIGAN CITY     45     170/ 13/ 19   N/A
SAINT JOSEPH      46     150/  4/  7 1016.6F

$$
&&


USA.gov is the U.S. government's official web portal to all federal, state and local government web resources and services.